Simultaneous Nadir Overpasses (SNOs) Predictions

Prediction of SNOs between TERRA and METOP-C Satellite Orbit:

Table of predicted SNOs for the next 14.0 days since TLE Epoch: 10/7/2023
Index Date (TERRA) Time (TERRA) Lat,Lon (TERRA) SZA (TERRA ) Date (METOP-C) Time (METOP-C) Lat,Lon (METOP-C) SZA (METOP-C ) Distance(km) Time Diff (sec)
1 10/08/2023 18:46:30 -80.37, 104.86 92.44 10/08/2023 18:45:32 -80.36, 104.84 92.47 0.71 58
2 10/08/2023 19:35:49 80.44, -86.77 87.70 10/08/2023 19:36:09 80.45, -86.74 87.72 0.79 20
3 10/11/2023 10:07:41 80.35, 54.35 88.54 10/11/2023 10:06:32 80.36, 54.52 88.54 3.24 69
4 10/11/2023 10:57:01 -80.44,-137.13 91.30 10/11/2023 10:57:10 -80.44,-137.04 91.28 1.62 9
5 10/14/2023 02:18:11 80.41, 172.32 89.66 10/14/2023 02:18:10 80.42, 172.48 89.69 3.18 1
6 10/16/2023 17:39:22 -80.39, 121.78 89.40 10/16/2023 17:39:12 -80.39, 121.80 89.40 0.37 10
7 10/16/2023 18:28:40 80.48, -69.69 90.77 10/16/2023 18:29:48 80.48, -69.63 90.80 1.11 68
8 10/19/2023 09:00:29 80.36, 71.17 91.52 10/19/2023 09:00:11 80.35, 71.03 91.50 2.95 18



Historial Predications of SNOs between TERRA and METOP-C
